owner,sensor,date,latitude,longitude,vertical_datum,mass_concentration_of_oxygen_in_sea_water,qcFlag 
SCCF RECON,ioos:station:SCCF:11:1,2017-11-01T04:00:00Z,26.4679,-82.0631,2.11,6.33,1111122 
SCCF RECON,ioos:station:SCCF:11:1,2017-11-01T05:00:00Z,26.4679,-82.0631,2.04,6.62,1111122 
SCCF RECON,ioos:station:SCCF:11:1,2017-11-01T06:00:00Z,26.4679,-82.0631,1.892,7.62,1111122 
SCCF RECON,ioos:station:SCCF:11:1,2017-11-01T07:00:00Z,26.4679,-82.0631,1.761,7.75,1111122 
SCCF RECON,ioos:station:SCCF:11:1,2017-11-01T08:00:00Z,26.4679,-82.0631,1.651,7.72,1111122 
SCCF RECON,ioos:station:SCCF:11:1,2017-11-01T09:00:00Z,26.4679,-82.0631,1.58,7.52,1111122 
SCCF RECON,ioos:station:SCCF:11:1,2017-11-01T10:00:00Z,26.4679,-82.0631,1.562,7.5,1111122 
SCCF RECON,ioos:station:SCCF:11:1,2017-11-01T11:00:00Z,26.4679,-82.0631,1.649,7.36,1111122 
SCCF RECON,ioos:station:SCCF:11:1,2017-11-01T12:00:00Z,26.4679,-82.0631,1.81,7.01,1111122 
SCCF RECON,ioos:station:SCCF:11:1,2017-11-01T13:00:00Z,26.4679,-82.0631,1.97,6.84,1111122 
SCCF RECON,ioos:station:SCCF:11:1,2017-11-01T14:00:00Z,26.4679,-82.0631,2.08,6.67,1111122 
SCCF RECON,ioos:station:SCCF:11:1,2017-11-01T15:00:00Z,26.4679,-82.0631,2.159,6.3,1111122 
SCCF RECON,ioos:station:SCCF:11:1,2017-11-01T16:00:00Z,26.4679,-82.0631,2.19,6.16,1111122 
SCCF RECON,ioos:station:SCCF:11:1,2017-11-01T17:00:00Z,26.4679,-82.0631,2.143,6.02,1111122 
SCCF RECON,ioos:station:SCCF:11:1,2017-11-01T18:00:00Z,26.4679,-82.0631,2.021,6.97,1111122 
SCCF RECON,ioos:station:SCCF:11:1,2017-11-01T19:00:00Z,26.4679,-82.0631,1.883,7.65,1111122 
SCCF RECON,ioos:station:SCCF:11:1,2017-11-01T20:00:00Z,26.4679,-82.0631,1.795,8.05,1111122 
SCCF RECON,ioos:station:SCCF:11:1,2017-11-01T21:00:00Z,26.4679,-82.0631,1.749,8.27,1111122 
SCCF RECON,ioos:station:SCCF:11:1,2017-11-01T22:00:00Z,26.4679,-82.0631,1.737,8.29,1111122 
SCCF RECON,ioos:station:SCCF:11:1,2017-11-02T04:00:00Z,26.4679,-82.0631,2.33,5.87,1111122 
SCCF RECON,ioos:station:SCCF:11:1,2017-11-02T05:00:00Z,26.4679,-82.0631,2.29,5.8,1111122 
SCCF RECON,ioos:station:SCCF:11:1,2017-11-02T06:00:00Z,26.4679,-82.0631,2.14,7.21,1111122 
SCCF RECON,ioos:station:SCCF:11:1,2017-11-02T07:00:00Z,26.4679,-82.0631,1.977,7.47,1111122 
SCCF RECON,ioos:station:SCCF:11:1,2017-11-02T08:00:00Z,26.4679,-82.0631,1.84,7.34,1111122 
SCCF RECON,ioos:station:SCCF:11:1,2017-11-02T09:00:00Z,26.4679,-82.0631,1.73,7.38,1111122 
SCCF RECON,ioos:station:SCCF:11:1,2017-11-02T10:00:00Z,26.4679,-82.0631,1.632,7.4,1111122 
SCCF RECON,ioos:station:SCCF:11:1,2017-11-02T11:00:00Z,26.4679,-82.0631,1.62,7.14,1111122 
SCCF RECON,ioos:station:SCCF:11:1,2017-11-02T12:00:00Z,26.4679,-82.0631,1.752,6.95,1111122 
SCCF RECON,ioos:station:SCCF:11:1,2017-11-02T13:00:00Z,26.4679,-82.0631,1.964,6.39,1111122 
SCCF RECON,ioos:station:SCCF:11:1,2017-11-02T14:00:00Z,26.4679,-82.0631,2.113,6.5,1111122 
SCCF RECON,ioos:station:SCCF:11:1,2017-11-02T15:00:00Z,26.4679,-82.0631,2.213,6.27,1111122 
SCCF RECON,ioos:station:SCCF:11:1,2017-11-02T16:00:00Z,26.4679,-82.0631,2.293,5.94,1111122 
SCCF RECON,ioos:station:SCCF:11:1,2017-11-02T17:00:00Z,26.4679,-82.0631,2.276,5.99,1111122 
SCCF RECON,ioos:station:SCCF:11:1,2017-11-02T18:00:00Z,26.4679,-82.0631,2.177,6.4,1111122 
SCCF RECON,ioos:station:SCCF:11:1,2017-11-02T19:00:00Z,26.4679,-82.0631,2.016,7.27,1111122 
SCCF RECON,ioos:station:SCCF:11:1,2017-11-02T20:00:00Z,26.4679,-82.0631,1.881,7.77,1111122 
SCCF RECON,ioos:station:SCCF:11:1,2017-11-02T21:00:00Z,26.4679,-82.0631,1.8,7.8,1111122 
SCCF RECON,ioos:station:SCCF:11:1,2017-11-02T22:00:00Z,26.4679,-82.0631,1.736,8.18,1111122 
SCCF RECON,ioos:station:SCCF:11:1,2017-11-03T04:00:00Z,26.4679,-82.0631,2.21,6.42,1111122 
SCCF RECON,ioos:station:SCCF:11:1,2017-11-03T05:00:00Z,26.4679,-82.0631,2.21,6.44,1111122 
SCCF RECON,ioos:station:SCCF:11:1,2017-11-03T06:00:00Z,26.4679,-82.0631,2.118,6.77,1111122 
SCCF RECON,ioos:station:SCCF:11:1,2017-11-03T07:00:00Z,26.4679,-82.0631,1.95,7.04,1111122 
SCCF RECON,ioos:station:SCCF:11:1,2017-11-03T08:00:00Z,26.4679,-82.0631,1.782,7.13,1111122 
SCCF RECON,ioos:station:SCCF:11:1,2017-11-03T09:00:00Z,26.4679,-82.0631,1.63,6.65,1111122 
SCCF RECON,ioos:station:SCCF:11:1,2017-11-03T10:00:00Z,26.4679,-82.0631,1.505,6.34,1111122 
SCCF RECON,ioos:station:SCCF:11:1,2017-11-03T11:00:00Z,26.4679,-82.0631,1.407,6.13,1111122 
SCCF RECON,ioos:station:SCCF:11:1,2017-11-03T12:00:00Z,26.4679,-82.0631,1.43,5.77,1111122 
SCCF RECON,ioos:station:SCCF:11:1,2017-11-03T13:00:00Z,26.4679,-82.0631,1.611,6.27,1111122 
SCCF RECON,ioos:station:SCCF:11:1,2017-11-03T14:00:00Z,26.4679,-82.0631,1.838,6.71,1111122 
SCCF RECON,ioos:station:SCCF:11:1,2017-11-03T15:00:00Z,26.4679,-82.0631,1.992,6.61,1111122 
SCCF RECON,ioos:station:SCCF:11:1,2017-11-03T16:00:00Z,26.4679,-82.0631,2.102,6.52,1111122 
SCCF RECON,ioos:station:SCCF:11:1,2017-11-03T17:00:00Z,26.4679,-82.0631,2.18,6.34,1111122 
SCCF RECON,ioos:station:SCCF:11:1,2017-11-03T18:00:00Z,26.4679,-82.0631,2.171,6.43,1111122 
SCCF RECON,ioos:station:SCCF:11:1,2017-11-03T19:00:00Z,26.4679,-82.0631,2.087,6.57,1111122 
SCCF RECON,ioos:station:SCCF:11:1,2017-11-03T20:00:00Z,26.4679,-82.0631,1.958,6.97,1111122 
SCCF RECON,ioos:station:SCCF:11:1,2017-11-03T21:00:00Z,26.4679,-82.0631,1.846,7.35,1111122 
SCCF RECON,ioos:station:SCCF:11:1,2017-11-03T22:00:00Z,26.4679,-82.0631,1.783,7.09,1111122 
SCCF RECON,ioos:station:SCCF:11:1,2017-11-04T04:00:00Z,26.4679,-82.0631,2.233,6.53,1111122 
SCCF RECON,ioos:station:SCCF:11:1,2017-11-04T05:00:00Z,26.4679,-82.0631,2.25,6.22,1111122 
SCCF RECON,ioos:station:SCCF:11:1,2017-11-04T06:00:00Z,26.4679,-82.0631,2.2,6.24,1111122 
SCCF RECON,ioos:station:SCCF:11:1,2017-11-04T07:00:00Z,26.4679,-82.0631,2.067,6.64,1111122 
SCCF RECON,ioos:station:SCCF:11:1,2017-11-04T08:00:00Z,26.4679,-82.0631,1.89,6.44,1111122 
SCCF RECON,ioos:station:SCCF:11:1,2017-11-04T09:00:00Z,26.4679,-82.0631,1.712,6.32,1111122 
SCCF RECON,ioos:station:SCCF:11:1,2017-11-04T10:00:00Z,26.4679,-82.0631,1.564,6.05,1111122 
SCCF RECON,ioos:station:SCCF:11:1,2017-11-04T11:00:00Z,26.4679,-82.0631,1.435,5.84,1111122 
SCCF RECON,ioos:station:SCCF:11:1,2017-11-04T12:00:00Z,26.4679,-82.0631,1.353,5.71,1111122 
SCCF RECON,ioos:station:SCCF:11:1,2017-11-04T13:00:00Z,26.4679,-82.0631,1.411,6.21,1111122 
SCCF RECON,ioos:station:SCCF:11:1,2017-11-04T14:00:00Z,26.4679,-82.0631,1.623,6.18,1111122 
SCCF RECON,ioos:station:SCCF:11:1,2017-11-04T15:00:00Z,26.4679,-82.0631,1.834,6.51,1111122 
SCCF RECON,ioos:station:SCCF:11:1,2017-11-04T16:00:00Z,26.4679,-82.0631,1.983,6.46,1111122 
SCCF RECON,ioos:station:SCCF:11:1,2017-11-04T17:00:00Z,26.4679,-82.0631,2.088,6.36,1111122 
SCCF RECON,ioos:station:SCCF:11:1,2017-11-04T18:00:00Z,26.4679,-82.0631,2.162,6.19,1111122 
SCCF RECON,ioos:station:SCCF:11:1,2017-11-04T19:00:00Z,26.4679,-82.0631,2.146,6.34,1111122 
SCCF RECON,ioos:station:SCCF:11:1,2017-11-04T20:00:00Z,26.4679,-82.0631,2.06,6.68,1111122 
SCCF RECON,ioos:station:SCCF:11:1,2017-11-04T21:00:00Z,26.4679,-82.0631,1.932,6.92,1111122 
SCCF RECON,ioos:station:SCCF:11:1,2017-11-04T22:00:00Z,26.4679,-82.0631,1.871,7.17,1111122 
SCCF RECON,ioos:station:SCCF:11:1,2017-11-05T04:00:00Z,26.4679,-82.0631,2.26,6.4,1111122 
SCCF RECON,ioos:station:SCCF:11:1,2017-11-05T05:00:00Z,26.4679,-82.0631,2.31,6.29,1111122 
SCCF RECON,ioos:station:SCCF:11:1,2017-11-05T06:00:00Z,26.4679,-82.0631,2.32,5.97,1111122 
SCCF RECON,ioos:station:SCCF:11:1,2017-11-05T07:00:00Z,26.4679,-82.0631,2.24,6.09,1111122 
SCCF RECON,ioos:station:SCCF:11:1,2017-11-05T08:00:00Z,26.4679,-82.0631,2.07,6.32,1111122 
SCCF RECON,ioos:station:SCCF:11:1,2017-11-05T09:00:00Z,26.4679,-82.0631,1.895,6.06,1111122 
SCCF RECON,ioos:station:SCCF:11:1,2017-11-05T10:00:00Z,26.4679,-82.0631,1.731,5.99,1111122 
SCCF RECON,ioos:station:SCCF:11:1,2017-11-05T11:00:00Z,26.4679,-82.0631,1.575,5.92,1111122 
SCCF RECON,ioos:station:SCCF:11:1,2017-11-05T12:00:00Z,26.4679,-82.0631,1.444,5.75,1111122 
SCCF RECON,ioos:station:SCCF:11:1,2017-11-05T13:00:00Z,26.4679,-82.0631,1.384,5.48,1111122 
SCCF RECON,ioos:station:SCCF:11:1,2017-11-05T14:00:00Z,26.4679,-82.0631,1.479,5.89,1111122 
SCCF RECON,ioos:station:SCCF:11:1,2017-11-05T15:00:00Z,26.4679,-82.0631,1.7,5.93,1111122 
SCCF RECON,ioos:station:SCCF:11:1,2017-11-05T16:00:00Z,26.4679,-82.0631,1.897,6.4,1111122 
SCCF RECON,ioos:station:SCCF:11:1,2017-11-05T17:00:00Z,26.4679,-82.0631,2.042,6.23,1111122 
SCCF RECON,ioos:station:SCCF:11:1,2017-11-05T18:00:00Z,26.4679,-82.0631,2.153,6.09,1111122 
SCCF RECON,ioos:station:SCCF:11:1,2017-11-05T19:00:00Z,26.4679,-82.0631,2.209,6.17,1111122 
SCCF RECON,ioos:station:SCCF:11:1,2017-11-05T20:00:00Z,26.4679,-82.0631,2.177,6.1,1111122 
SCCF RECON,ioos:station:SCCF:11:1,2017-11-05T21:00:00Z,26.4679,-82.0631,2.071,6.96,1111122 
SCCF RECON,ioos:station:SCCF:11:1,2017-11-05T22:00:00Z,26.4679,-82.0631,1.976,6.89,1111122 
SCCF RECON,ioos:station:SCCF:11:1,2017-11-06T05:00:00Z,26.4679,-82.0631,2.349,5.95,1111122 
SCCF RECON,ioos:station:SCCF:11:1,2017-11-06T06:00:00Z,26.4679,-82.0631,2.36,5.93,1111122 
SCCF RECON,ioos:station:SCCF:11:1,2017-11-06T07:00:00Z,26.4679,-82.0631,2.34,5.66,1111122 
SCCF RECON,ioos:station:SCCF:11:1,2017-11-06T08:00:00Z,26.4679,-82.0631,2.23,6.17,1111122 
SCCF RECON,ioos:station:SCCF:11:1,2017-11-06T09:00:00Z,26.4679,-82.0631,2.05,6.04,1111122 
SCCF RECON,ioos:station:SCCF:11:1,2017-11-06T10:00:00Z,26.4679,-82.0631,1.863,5.71,1111122 
SCCF RECON,ioos:station:SCCF:11:1,2017-11-06T11:00:00Z,26.4679,-82.0631,1.703,5.44,1111122 
SCCF RECON,ioos:station:SCCF:11:1,2017-11-06T12:00:00Z,26.4679,-82.0631,1.551,5.37,1111122 
SCCF RECON,ioos:station:SCCF:11:1,2017-11-06T13:00:00Z,26.4679,-82.0631,1.431,5.1,1111122 
SCCF RECON,ioos:station:SCCF:11:1,2017-11-06T14:00:00Z,26.4679,-82.0631,1.389,5.23,1111122 
SCCF RECON,ioos:station:SCCF:11:1,2017-11-06T15:00:00Z,26.4679,-82.0631,1.502,5.85,1111122 
SCCF RECON,ioos:station:SCCF:11:1,2017-11-06T16:00:00Z,26.4679,-82.0631,1.72,5.77,1111122 
SCCF RECON,ioos:station:SCCF:11:1,2017-11-06T17:00:00Z,26.4679,-82.0631,1.891,5.95,1111122 
SCCF RECON,ioos:station:SCCF:11:1,2017-11-06T18:00:00Z,26.4679,-82.0631,1.99,5.95,1111122 
SCCF RECON,ioos:station:SCCF:11:1,2017-11-06T19:00:00Z,26.4679,-82.0631,2.075,5.88,1111122 
SCCF RECON,ioos:station:SCCF:11:1,2017-11-06T20:00:00Z,26.4679,-82.0631,2.116,5.88,1111122 
SCCF RECON,ioos:station:SCCF:11:1,2017-11-06T21:00:00Z,26.4679,-82.0631,2.089,5.99,1111122 
SCCF RECON,ioos:station:SCCF:11:1,2017-11-06T22:00:00Z,26.4679,-82.0631,2.005,6.79,1111122 
SCCF RECON,ioos:station:SCCF:11:1,2017-11-07T05:00:00Z,26.4679,-82.0631,2.22,6.08,1111122 
SCCF RECON,ioos:station:SCCF:11:1,2017-11-07T06:00:00Z,26.4679,-82.0631,2.28,5.8,1111122 
SCCF RECON,ioos:station:SCCF:11:1,2017-11-07T07:00:00Z,26.4679,-82.0631,2.27,5.7,1111122 
SCCF RECON,ioos:station:SCCF:11:1,2017-11-07T08:00:00Z,26.4679,-82.0631,2.22,5.79,1111122 
SCCF RECON,ioos:station:SCCF:11:1,2017-11-07T09:00:00Z,26.4679,-82.0631,2.106,5.91,1111122 
SCCF RECON,ioos:station:SCCF:11:1,2017-11-07T10:00:00Z,26.4679,-82.0631,1.95,5.61,1111122 
SCCF RECON,ioos:station:SCCF:11:1,2017-11-07T11:00:00Z,26.4679,-82.0631,1.78,5.48,1111122 
SCCF RECON,ioos:station:SCCF:11:1,2017-11-07T12:00:00Z,26.4679,-82.0631,1.641,5.3,1111122 
SCCF RECON,ioos:station:SCCF:11:1,2017-11-07T13:00:00Z,26.4679,-82.0631,1.503,4.88,1111122 
SCCF RECON,ioos:station:SCCF:11:1,2017-11-07T14:00:00Z,26.4679,-82.0631,1.39,5.04,1111122 
SCCF RECON,ioos:station:SCCF:11:1,2017-11-07T17:00:00Z,26.4679,-82.0631,1.72,5.93,1111122 
SCCF RECON,ioos:station:SCCF:11:1,2017-11-07T19:00:00Z,26.4679,-82.0631,1.98,5.92,1111122 
SCCF RECON,ioos:station:SCCF:11:1,2017-11-07T20:00:00Z,26.4679,-82.0631,2.07,5.73,1111122 
SCCF RECON,ioos:station:SCCF:11:1,2017-11-07T22:00:00Z,26.4679,-82.0631,2.095,6.27,1111122 
SCCF RECON,ioos:station:SCCF:11:1,2017-11-07T23:00:00Z,26.4679,-82.0631,2.026,6.72,1111122 
SCCF RECON,ioos:station:SCCF:11:1,2017-11-08T06:00:00Z,26.4679,-82.0631,2.23,6.1,1111122 
SCCF RECON,ioos:station:SCCF:11:1,2017-11-08T07:00:00Z,26.4679,-82.0631,2.27,5.92,1111122 
SCCF RECON,ioos:station:SCCF:11:1,2017-11-08T08:00:00Z,26.4679,-82.0631,2.269,5.57,1111122 
SCCF RECON,ioos:station:SCCF:11:1,2017-11-08T09:00:00Z,26.4679,-82.0631,2.21,5.76,1111122 
SCCF RECON,ioos:station:SCCF:11:1,2017-11-08T10:00:00Z,26.4679,-82.0631,2.093,5.77,1111122 
SCCF RECON,ioos:station:SCCF:11:1,2017-11-08T11:00:00Z,26.4679,-82.0631,1.94,5.34,1111122 
SCCF RECON,ioos:station:SCCF:11:1,2017-11-08T12:00:00Z,26.4679,-82.0631,1.79,5.34,1111122 
SCCF RECON,ioos:station:SCCF:11:1,2017-11-08T13:00:00Z,26.4679,-82.0631,1.657,5.23,1111122 
SCCF RECON,ioos:station:SCCF:11:1,2017-11-08T14:00:00Z,26.4679,-82.0631,1.53,5.12,1111122 
SCCF RECON,ioos:station:SCCF:11:1,2017-11-08T15:00:00Z,26.4679,-82.0631,1.444,5.19,1111122 
SCCF RECON,ioos:station:SCCF:11:1,2017-11-08T16:00:00Z,26.4679,-82.0631,1.439,5.38,1111122 
SCCF RECON,ioos:station:SCCF:11:1,2017-11-08T17:00:00Z,26.4679,-82.0631,1.551,5.66,1111122 
SCCF RECON,ioos:station:SCCF:11:1,2017-11-08T18:00:00Z,26.4679,-82.0631,1.71,5.92,1111122 
SCCF RECON,ioos:station:SCCF:11:1,2017-11-08T19:00:00Z,26.4679,-82.0631,1.84,5.9,1111122 
SCCF RECON,ioos:station:SCCF:11:1,2017-11-08T20:00:00Z,26.4679,-82.0631,1.94,6.04,1111122 
SCCF RECON,ioos:station:SCCF:11:1,2017-11-08T21:00:00Z,26.4679,-82.0631,2.03,5.74,1111122 
SCCF RECON,ioos:station:SCCF:11:1,2017-11-08T22:00:00Z,26.4679,-82.0631,2.078,5.43,1111122 
SCCF RECON,ioos:station:SCCF:11:1,2017-11-09T05:00:00Z,26.4679,-82.0631,2.07,5.89,1111122 
SCCF RECON,ioos:station:SCCF:11:1,2017-11-09T06:00:00Z,26.4679,-82.0631,2.13,5.42,1111122 
SCCF RECON,ioos:station:SCCF:11:1,2017-11-09T07:00:00Z,26.4679,-82.0631,2.18,5.25,1111122 
SCCF RECON,ioos:station:SCCF:11:1,2017-11-09T08:00:00Z,26.4679,-82.0631,2.22,5.48,1111122 
SCCF RECON,ioos:station:SCCF:11:1,2017-11-09T09:00:00Z,26.4679,-82.0631,2.21,5.41,1111122 
SCCF RECON,ioos:station:SCCF:11:1,2017-11-09T10:00:00Z,26.4679,-82.0631,2.15,5.08,1111122 
SCCF RECON,ioos:station:SCCF:11:1,2017-11-09T11:00:00Z,26.4679,-82.0631,2.07,5.24,1111122 
SCCF RECON,ioos:station:SCCF:11:1,2017-11-09T12:00:00Z,26.4679,-82.0631,1.95,5.5,1111122 
SCCF RECON,ioos:station:SCCF:11:1,2017-11-09T13:00:00Z,26.4679,-82.0631,1.823,5.54,1111122 
SCCF RECON,ioos:station:SCCF:11:1,2017-11-09T14:00:00Z,26.4679,-82.0631,1.71,5.61,1111122 
SCCF RECON,ioos:station:SCCF:11:1,2017-11-09T15:00:00Z,26.4679,-82.0631,1.581,5.82,1111122 
SCCF RECON,ioos:station:SCCF:11:1,2017-11-09T16:00:00Z,26.4679,-82.0631,1.494,6.13,1111122 
SCCF RECON,ioos:station:SCCF:11:1,2017-11-09T17:00:00Z,26.4679,-82.0631,1.493,6.51,1111122 
SCCF RECON,ioos:station:SCCF:11:1,2017-11-09T18:00:00Z,26.4679,-82.0631,1.59,6.12,1111122 
SCCF RECON,ioos:station:SCCF:11:1,2017-11-09T19:00:00Z,26.4679,-82.0631,1.76,6.37,1111122 
SCCF RECON,ioos:station:SCCF:11:1,2017-11-09T20:00:00Z,26.4679,-82.0631,1.876,6.23,1111122 
SCCF RECON,ioos:station:SCCF:11:1,2017-11-09T21:00:00Z,26.4679,-82.0631,1.95,5.94,1111122 
SCCF RECON,ioos:station:SCCF:11:1,2017-11-09T22:00:00Z,26.4679,-82.0631,2.014,5.71,1111122 
SCCF RECON,ioos:station:SCCF:11:1,2017-11-10T05:00:00Z,26.4679,-82.0631,1.96,6.27,1111122 
SCCF RECON,ioos:station:SCCF:11:1,2017-11-10T06:00:00Z,26.4679,-82.0631,1.972,6.37,1111122 
SCCF RECON,ioos:station:SCCF:11:1,2017-11-10T07:00:00Z,26.4679,-82.0631,2.02,6.26,1111122 
SCCF RECON,ioos:station:SCCF:11:1,2017-11-10T08:00:00Z,26.4679,-82.0631,2.08,6.15,1111122 
SCCF RECON,ioos:station:SCCF:11:1,2017-11-10T09:00:00Z,26.4679,-82.0631,2.112,6.06,1111122 
SCCF RECON,ioos:station:SCCF:11:1,2017-11-10T10:00:00Z,26.4679,-82.0631,2.12,5.83,1111122 
SCCF RECON,ioos:station:SCCF:11:1,2017-11-10T11:00:00Z,26.4679,-82.0631,2.102,5.71,1111122 
SCCF RECON,ioos:station:SCCF:11:1,2017-11-10T12:00:00Z,26.4679,-82.0631,2.037,5.69,1111122 
SCCF RECON,ioos:station:SCCF:11:1,2017-11-10T13:00:00Z,26.4679,-82.0631,1.93,5.78,1111122 
SCCF RECON,ioos:station:SCCF:11:1,2017-11-10T14:00:00Z,26.4679,-82.0631,1.821,5.63,1111122 
SCCF RECON,ioos:station:SCCF:11:1,2017-11-10T15:00:00Z,26.4679,-82.0631,1.716,5.79,1111122 
SCCF RECON,ioos:station:SCCF:11:1,2017-11-10T16:00:00Z,26.4679,-82.0631,1.603,6.14,1111122 
SCCF RECON,ioos:station:SCCF:11:1,2017-11-10T17:00:00Z,26.4679,-82.0631,1.536,6.34,1111122 
SCCF RECON,ioos:station:SCCF:11:1,2017-11-10T18:00:00Z,26.4679,-82.0631,1.531,6.66,1111122 
SCCF RECON,ioos:station:SCCF:11:1,2017-11-10T19:00:00Z,26.4679,-82.0631,1.598,6.8,1111122 
SCCF RECON,ioos:station:SCCF:11:1,2017-11-10T20:00:00Z,26.4679,-82.0631,1.728,6.42,1111122 
SCCF RECON,ioos:station:SCCF:11:1,2017-11-10T21:00:00Z,26.4679,-82.0631,1.828,6.65,1111122 
SCCF RECON,ioos:station:SCCF:11:1,2017-11-10T22:00:00Z,26.4679,-82.0631,1.926,6.35,1111122 
SCCF RECON,ioos:station:SCCF:11:1,2017-11-11T05:00:00Z,26.4679,-82.0631,1.82,6.28,1111122 
SCCF RECON,ioos:station:SCCF:11:1,2017-11-11T06:00:00Z,26.4679,-82.0631,1.77,6.12,1111122 
SCCF RECON,ioos:station:SCCF:11:1,2017-11-11T07:00:00Z,26.4679,-82.0631,1.76,6.16,1111122 
SCCF RECON,ioos:station:SCCF:11:1,2017-11-11T08:00:00Z,26.4679,-82.0631,1.82,5.83,1111122 
SCCF RECON,ioos:station:SCCF:11:1,2017-11-11T09:00:00Z,26.4679,-82.0631,1.911,5.92,1111122 
SCCF RECON,ioos:station:SCCF:11:1,2017-11-11T10:00:00Z,26.4679,-82.0631,1.97,5.96,1111122 
SCCF RECON,ioos:station:SCCF:11:1,2017-11-11T11:00:00Z,26.4679,-82.0631,2.04,6.16,1111122 
SCCF RECON,ioos:station:SCCF:11:1,2017-11-11T12:00:00Z,26.4679,-82.0631,2.076,6.06,1111122 
SCCF RECON,ioos:station:SCCF:11:1,2017-11-11T13:00:00Z,26.4679,-82.0631,2.06,5.98,1111122 
SCCF RECON,ioos:station:SCCF:11:1,2017-11-11T14:00:00Z,26.4679,-82.0631,1.98,6.0,1111122 
SCCF RECON,ioos:station:SCCF:11:1,2017-11-11T15:00:00Z,26.4679,-82.0631,1.877,6.03,1111122 
SCCF RECON,ioos:station:SCCF:11:1,2017-11-11T16:00:00Z,26.4679,-82.0631,1.773,6.09,1111122 
SCCF RECON,ioos:station:SCCF:11:1,2017-11-11T17:00:00Z,26.4679,-82.0631,1.677,6.4,1111122 
SCCF RECON,ioos:station:SCCF:11:1,2017-11-11T18:00:00Z,26.4679,-82.0631,1.6,6.85,1111122 
SCCF RECON,ioos:station:SCCF:11:1,2017-11-11T19:00:00Z,26.4679,-82.0631,1.582,7.15,1111122 
SCCF RECON,ioos:station:SCCF:11:1,2017-11-11T20:00:00Z,26.4679,-82.0631,1.654,6.79,1111122 
SCCF RECON,ioos:station:SCCF:11:1,2017-11-11T21:00:00Z,26.4679,-82.0631,1.782,6.9,1111122 
SCCF RECON,ioos:station:SCCF:11:1,2017-11-11T22:00:00Z,26.4679,-82.0631,1.898,6.74,1111122 
SCCF RECON,ioos:station:SCCF:11:1,2017-11-12T05:00:00Z,26.4679,-82.0631,1.93,6.29,1111122 
SCCF RECON,ioos:station:SCCF:11:1,2017-11-12T06:00:00Z,26.4679,-82.0631,1.873,6.14,1111122 
SCCF RECON,ioos:station:SCCF:11:1,2017-11-12T07:00:00Z,26.4679,-82.0631,1.82,6.04,1111122 
SCCF RECON,ioos:station:SCCF:11:1,2017-11-12T08:00:00Z,26.4679,-82.0631,1.82,5.92,1111122 
SCCF RECON,ioos:station:SCCF:11:1,2017-11-12T09:00:00Z,26.4679,-82.0631,1.878,5.82,1111122 
SCCF RECON,ioos:station:SCCF:11:1,2017-11-12T10:00:00Z,26.4679,-82.0631,1.93,5.63,1111122 
SCCF RECON,ioos:station:SCCF:11:1,2017-11-12T11:00:00Z,26.4679,-82.0631,1.991,5.58,1111122 
SCCF RECON,ioos:station:SCCF:11:1,2017-11-12T12:00:00Z,26.4679,-82.0631,2.06,5.86,1111122 
SCCF RECON,ioos:station:SCCF:11:1,2017-11-12T13:00:00Z,26.4679,-82.0631,2.08,5.92,1111122 
SCCF RECON,ioos:station:SCCF:11:1,2017-11-12T14:00:00Z,26.4679,-82.0631,2.075,5.81,1111122 
SCCF RECON,ioos:station:SCCF:11:1,2017-11-12T15:00:00Z,26.4679,-82.0631,2.041,5.81,1111122 
SCCF RECON,ioos:station:SCCF:11:1,2017-11-12T16:00:00Z,26.4679,-82.0631,1.967,6.05,1111122 
SCCF RECON,ioos:station:SCCF:11:1,2017-11-12T17:00:00Z,26.4679,-82.0631,1.844,6.36,1111122 
SCCF RECON,ioos:station:SCCF:11:1,2017-11-12T18:00:00Z,26.4679,-82.0631,1.758,6.7,1111122 
SCCF RECON,ioos:station:SCCF:11:1,2017-11-12T19:00:00Z,26.4679,-82.0631,1.688,6.7,1111122 
SCCF RECON,ioos:station:SCCF:11:1,2017-11-12T20:00:00Z,26.4679,-82.0631,1.687,6.86,1111122 
SCCF RECON,ioos:station:SCCF:11:1,2017-11-12T21:00:00Z,26.4679,-82.0631,1.772,6.38,1111122 
SCCF RECON,ioos:station:SCCF:11:1,2017-11-12T22:00:00Z,26.4679,-82.0631,1.935,6.75,1111122 
SCCF RECON,ioos:station:SCCF:11:1,2017-11-13T05:00:00Z,26.4679,-82.0631,2.03,6.17,1111122 
SCCF RECON,ioos:station:SCCF:11:1,2017-11-13T06:00:00Z,26.4679,-82.0631,1.92,6.37,1111122 
SCCF RECON,ioos:station:SCCF:11:1,2017-11-13T07:00:00Z,26.4679,-82.0631,1.787,6.19,1111122 
SCCF RECON,ioos:station:SCCF:11:1,2017-11-13T08:00:00Z,26.4679,-82.0631,1.731,6.06,1111122 
SCCF RECON,ioos:station:SCCF:11:1,2017-11-13T09:00:00Z,26.4679,-82.0631,1.73,6.05,1111122 
SCCF RECON,ioos:station:SCCF:11:1,2017-11-13T10:00:00Z,26.4679,-82.0631,1.81,6.12,1111122 
SCCF RECON,ioos:station:SCCF:11:1,2017-11-13T11:00:00Z,26.4679,-82.0631,1.92,6.26,1111122 
SCCF RECON,ioos:station:SCCF:11:1,2017-11-13T12:00:00Z,26.4679,-82.0631,2.003,6.14,1111122 
SCCF RECON,ioos:station:SCCF:11:1,2017-11-13T13:00:00Z,26.4679,-82.0631,2.07,6.21,1111122 
SCCF RECON,ioos:station:SCCF:11:1,2017-11-13T14:00:00Z,26.4679,-82.0631,2.125,6.16,1111122 
SCCF RECON,ioos:station:SCCF:11:1,2017-11-13T15:00:00Z,26.4679,-82.0631,2.12,6.17,1111122 
SCCF RECON,ioos:station:SCCF:11:1,2017-11-13T16:00:00Z,26.4679,-82.0631,2.068,6.43,1111122 
SCCF RECON,ioos:station:SCCF:11:1,2017-11-13T17:00:00Z,26.4679,-82.0631,1.967,6.31,1111122 
SCCF RECON,ioos:station:SCCF:11:1,2017-11-13T18:00:00Z,26.4679,-82.0631,1.832,6.38,1111122 
SCCF RECON,ioos:station:SCCF:11:1,2017-11-13T19:00:00Z,26.4679,-82.0631,1.744,6.56,1111122 
SCCF RECON,ioos:station:SCCF:11:1,2017-11-13T20:00:00Z,26.4679,-82.0631,1.674,6.49,1111122 
SCCF RECON,ioos:station:SCCF:11:1,2017-11-13T21:00:00Z,26.4679,-82.0631,1.691,6.66,1111122 
SCCF RECON,ioos:station:SCCF:11:1,2017-11-13T23:00:00Z,26.4679,-82.0631,1.91,6.46,1111122 
SCCF RECON,ioos:station:SCCF:11:1,2017-11-14T05:00:00Z,26.4679,-82.0631,2.03,6.26,1111122 
SCCF RECON,ioos:station:SCCF:11:1,2017-11-14T06:00:00Z,26.4679,-82.0631,1.881,6.4,1111122 
SCCF RECON,ioos:station:SCCF:11:1,2017-11-14T07:00:00Z,26.4679,-82.0631,1.745,6.14,1111122 
SCCF RECON,ioos:station:SCCF:11:1,2017-11-14T08:00:00Z,26.4679,-82.0631,1.63,6.04,1111122 
SCCF RECON,ioos:station:SCCF:11:1,2017-11-14T09:00:00Z,26.4679,-82.0631,1.57,6.12,1111122 
SCCF RECON,ioos:station:SCCF:11:1,2017-11-14T10:00:00Z,26.4679,-82.0631,1.592,6.16,1111122 
SCCF RECON,ioos:station:SCCF:11:1,2017-11-14T11:00:00Z,26.4679,-82.0631,1.7,6.32,1111122 
SCCF RECON,ioos:station:SCCF:11:1,2017-11-14T12:00:00Z,26.4679,-82.0631,1.848,6.38,1111122 
SCCF RECON,ioos:station:SCCF:11:1,2017-11-14T13:00:00Z,26.4679,-82.0631,1.939,6.39,1111122 
SCCF RECON,ioos:station:SCCF:11:1,2017-11-14T14:00:00Z,26.4679,-82.0631,2.015,6.38,1111122 
SCCF RECON,ioos:station:SCCF:11:1,2017-11-14T15:00:00Z,26.4679,-82.0631,2.07,6.44,1111122 
SCCF RECON,ioos:station:SCCF:11:1,2017-11-14T16:00:00Z,26.4679,-82.0631,2.093,6.43,1111122 
SCCF RECON,ioos:station:SCCF:11:1,2017-11-14T17:00:00Z,26.4679,-82.0631,2.027,6.4,1111122 
SCCF RECON,ioos:station:SCCF:11:1,2017-11-14T18:00:00Z,26.4679,-82.0631,1.922,6.59,1111122 
SCCF RECON,ioos:station:SCCF:11:1,2017-11-14T19:00:00Z,26.4679,-82.0631,1.837,6.66,1111122 
SCCF RECON,ioos:station:SCCF:11:1,2017-11-14T20:00:00Z,26.4679,-82.0631,1.752,6.59,1111122 
SCCF RECON,ioos:station:SCCF:11:1,2017-11-14T21:00:00Z,26.4679,-82.0631,1.711,7.08,1111122 
SCCF RECON,ioos:station:SCCF:11:1,2017-11-14T22:00:00Z,26.4679,-82.0631,1.759,7.01,1111122 
SCCF RECON,ioos:station:SCCF:11:1,2017-11-15T05:00:00Z,26.4679,-82.0631,2.004,6.49,1111122 
SCCF RECON,ioos:station:SCCF:11:1,2017-11-15T06:00:00Z,26.4679,-82.0631,1.899,6.54,1111122 
SCCF RECON,ioos:station:SCCF:11:1,2017-11-15T07:00:00Z,26.4679,-82.0631,1.77,6.31,1111122 
SCCF RECON,ioos:station:SCCF:11:1,2017-11-15T08:00:00Z,26.4679,-82.0631,1.64,6.24,1111122 
SCCF RECON,ioos:station:SCCF:11:1,2017-11-15T09:00:00Z,26.4679,-82.0631,1.535,6.06,1111122 
SCCF RECON,ioos:station:SCCF:11:1,2017-11-15T10:00:00Z,26.4679,-82.0631,1.48,6.07,1111122 
SCCF RECON,ioos:station:SCCF:11:1,2017-11-15T11:00:00Z,26.4679,-82.0631,1.5,6.33,1111122 
SCCF RECON,ioos:station:SCCF:11:1,2017-11-15T12:00:00Z,26.4679,-82.0631,1.65,6.43,1111122 